Theta_e
325 323 326 322 321 320 323 325 320 324 328 324 325 326 327 326 328 331 334 337 339 342 346 344 340 339 338 339 333 332 331 333 332 329 328 329 330 329 330 329 329 328 329 328 329 331 331 334 332
325 326 324 317 321 320 320 320 325 323 323 321 325 323 325 332 332 331 336 339 338 341 344 344 341 339 338 338 336 332 331 334 332 328 328 329 329 330 330 329 328 327 323 327 325 325 329 329 329
325 325 320 321 321 323 320 320 323 324 322 325 327 324 327 331 332 332 334 339 339 340 342 344 341 338 339 338 338 334 332 333 332 329 329 331 331 332 329 330 327 326 324 322 324 324 325 328 327
328 321 316 322 323 322 323 321 320 322 323 324 325 328 329 329 330 334 334 338 338 338 339 343 341 339 340 338 337 335 333 332 331 328 330 330 333 334 329 329 327 328 326 324 324 324 323 321 321
325 317 323 323 323 321 321 320 317 321 323 324 322 326 330 331 334 334 334 337 337 339 338 341 342 341 341 340 338 336 335 332 331 329 330 331 333 334 333 329 329 329 327 325 325 325 326 327 327
325 318 323 324 322 321 320 320 317 319 320 322 323 327 328 331 333 333 334 334 336 339 341 341 342 342 340 340 337 336 335 333 329 331 334 334 333 334 334 331 330 327 325 325 328 328 328 330 330
326 322 325 323 323 323 323 322 317 318 321 324 321 327 326 328 333 334 333 334 336 340 342 343 343 342 340 339 337 336 335 332 327 331 333 329 329 331 334 332 328 326 325 327 325 326 327 327 328
324 323 327 324 326 326 323 321 317 320 321 322 321 327 328 324 333 334 333 336 339 340 339 339 342 342 341 338 338 337 335 332 328 324 328 326 328 328 328 327 326 326 327 325 321 321 321 322 321
326 328 329 328 325 325 321 323 321 320 322 323 322 320 321 326 333 333 332 336 340 339 337 336 335 339 339 336 338 337 335 333 331 328 325 323 323 321 322 327 328 328 326 325 324 325 325 327 327
329 331 331 325 324 324 323 323 321 325 325 325 324 322 324 328 332 332 331 332 335 339 338 336 334 331 334 335 338 337 335 334 332 330 326 329 327 327 328 329 328 327 327 327 327 327 327 328 328
329 334 328 327 325 324 324 323 322 323 324 324 325 323 323 323 326 329 331 332 334 336 337 337 336 335 334 335 336 336 335 335 334 332 331 331 331 328 327 327 327 327 327 327 328 328 328 328 329
326 328 329 329 327 327 327 323 323 321 322 322 322 321 321 320 320 320 320 325 330 333 336 336 336 336 337 339 340 339 337 336 336 335 334 333 331 327 326 327 327 327 328 328 328 329 329 329 329
322 324 325 326 328 328 326 325 323 322 320 319 319 320 320 319 319 322 323 323 322 326 334 336 336 336 337 338 340 339 338 337 336 336 335 332 330 328 329 329 330 330 330 329 329 329 328 328 325
318 319 321 324 324 326 327 326 322 322 320 320 320 320 319 319 319 319 321 322 325 327 331 335 336 336 337 338 339 338 338 338 336 333 332 331 331 331 331 331 330 329 329 328 325 322 320 318 317
319 321 320 320 320 323 326 330 329 321 320 320 320 319 318 318 318 318 320 321 326 327 330 333 335 336 337 338 338 338 337 336 334 333 333 333 332 332 331 328 324 321 320 320 319 316 313 311 310
321 320 324 321 320 322 327 332 327 321 319 320 319 318 317 316 317 319 322 323 324 326 328 331 334 334 336 337 338 337 335 334 334 333 332 331 329 329 328 322 317 314 316 313 312 310 308 305 303
319 321 322 324 320 324 326 329 326 322 319 320 319 317 317 314 316 318 320 321 322 323 324 324 325 328 331 334 335 335 333 333 330 330 328 325 326 324 322 317 311 310 310 309 306 303 300 299 298
320 319 320 322 322 322 325 326 325 322 320 321 321 321 315 314 316 317 320 321 322 322 324 325 324 323 331 334 331 328 330 325 323 322 321 322 319 315 312 308 306 305 304 302 300 299 297 298 297
317 316 317 318 319 322 323 324 323 323 321 319 318 317 314 314 315 317 321 323 326 327 327 325 323 328 330 327 324 322 317 315 316 316 314 313 309 307 305 303 302 301 300 297 296 296 295 296 295
318 319 318 316 316 320 322 324 323 323 323 322 322 318 314 315 315 316 322 326 328 328 329 330 328 324 325 327 323 319 315 312 311 308 306 305 304 303 302 301 299 298 296 295 294 294 294 295 294
315 318 317 317 316 316 316 321 323 323 323 321 321 320 314 316 316 316 317 323 326 327 329 329 328 326 325 324 319 314 311 307 305 304 303 301 301 300 299 298 297 295 294 293 293 293 292 292 294
316 315 317 316 317 319 321 327 323 323 324 322 322 317 316 317 316 314 315 317 321 324 327 327 326 325 322 321 318 314 308 306 305 303 301 300 299 298 297 295 294 294 293 292 292 292 291 292 293
315 313 314 316 316 318 317 322 324 323 324 324 322 318 316 316 316 315 316 316 318 320 321 322 322 321 319 319 316 310 308 306 303 301 300 298 297 296 295 294 293 292 292 291 291 291 290 291 290
314 315 316 316 318 323 317 320 321 325 323 322 321 315 315 316 315 314 314 314 314 316 317 317 317 316 315 313 311 309 306 304 301 299 298 297 296 295 293 292 291 291 291 290 290 290 290 289 289
312 315 318 319 319 317 314 320 318 321 321 320 320 316 315 315 315 314 313 310 309 310 312 314 314 312 312 310 308 307 304 302 300 298 297 296 294 293 292 291 290 290 290 290 289 289 289 289 288
314 314 318 315 313 313 323 326 322 320 319 319 315 316 315 316 316 315 312 310 308 307 308 309 310 307 308 307 304 303 301 300 298 298 296 294 293 291 290 290 290 289 289 289 289 289 288 288 287
313 316 312 316 317 322 321 323 320 320 316 315 315 316 316 316 316 314 311 309 307 306 305 306 305 304 304 302 300 299 299 298 297 295 294 292 291 290 290 290 289 289 289 289 288 288 288 287 287
312 312 314 316 313 322 326 323 317 318 317 316 316 317 317 316 315 313 311 308 306 305 305 304 303 302 300 299 299 298 297 296 295 294 292 291 290 290 289 289 289 289 289 288 288 288 287 287 287
314 313 314 312 315 322 330 327 318 319 317 317 316 317 316 316 315 313 310 308 305 304 303 302 301 299 297 297 296 296 295 294 294 293 291 290 290 289 289 289 289 289 288 288 288 287 287 287 286
312 313 313 315 313 317 321 320 315 313 317 317 316 316 316 315 314 312 310 306 304 302 301 300 298 297 296 296 295 294 294 293 293 292 291 290 289 289 288 288 288 288 288 287 287 287 286 287 287
Wind_Speed
20 21 20 5 3 4 3 5 2 4 5 5 2 5 3 1 2 3 5 19 14 25 27 21 22 20 17 17 13 12 11 10 9 9 10 11 9 8 8 5 5 4 3 3 3 4 4 4 4
18 21 5 2 3 1 4 4 1 2 3 8 5 5 3 2 1 4 8 16 17 24 26 24 22 20 18 16 15 13 11 10 10 10 10 9 8 9 8 5 5 4 2 4 3 5 7 7 6
15 7 3 3 3 4 4 3 5 5 3 5 3 5 3 1 1 5 6 21 20 23 26 24 22 20 19 16 16 12 10 9 10 11 11 9 7 10 8 6 4 2 2 0 2 3 4 5 6
6 6 3 2 8 8 5 6 6 5 3 3 2 5 3 2 5 8 14 21 20 20 24 23 22 21 19 15 16 13 10 8 9 10 11 9 6 11 10 6 2 1 2 2 1 1 1 2 3
2 3 0 3 7 6 3 5 5 6 1 3 4 2 3 2 8 14 17 21 20 20 22 22 23 21 20 17 16 13 10 7 9 10 10 7 7 6 11 6 3 1 2 2 2 0 3 4 5
2 3 2 6 7 7 6 7 4 3 2 4 3 2 2 3 13 14 17 18 19 21 22 22 22 23 20 19 16 14 10 8 9 11 9 6 7 7 9 7 4 3 2 2 2 4 5 6 6
5 4 5 5 6 7 5 5 3 4 5 2 2 2 2 4 11 15 12 20 20 20 21 22 22 23 21 19 17 14 10 9 10 12 11 8 7 7 8 7 5 4 3 4 5 6 7 7 9
3 4 5 6 6 11 5 3 2 4 4 2 4 3 3 6 14 15 12 19 21 20 19 18 23 23 22 19 17 15 12 11 11 11 12 9 8 6 6 5 5 4 4 6 7 7 7 8 8
1 1 7 9 8 7 6 4 5 2 4 2 2 4 5 8 13 15 17 18 22 21 19 18 22 24 22 20 19 16 13 12 10 10 8 8 8 7 8 7 5 4 5 6 5 6 5 6 7
5 5 9 6 9 9 3 1 7 2 1 1 1 3 8 13 12 11 11 17 22 25 25 22 21 22 22 21 19 18 15 13 10 9 9 8 6 6 6 9 7 4 3 4 4 5 5 7 8
5 14 7 6 11 9 5 4 5 4 5 5 4 2 2 5 10 13 17 22 28 29 27 27 25 22 22 22 21 20 17 14 11 10 10 9 7 6 6 4 5 5 6 6 6 7 8 9 10
7 5 11 6 6 5 4 3 6 5 7 4 5 4 3 6 8 13 18 23 27 27 29 29 28 26 24 23 21 21 18 15 13 11 11 10 8 8 6 5 5 6 7 7 9 9 9 9 10
5 5 10 9 10 14 14 12 9 10 10 8 8 7 7 8 8 18 18 14 11 22 32 32 29 28 26 25 22 22 19 15 12 12 11 11 9 6 3 2 0 3 6 5 5 4 5 7 8
5 6 7 8 12 9 12 17 6 9 10 10 8 10 9 10 10 11 13 14 13 13 29 33 30 27 28 26 23 19 15 17 13 13 8 10 6 4 2 2 3 3 3 3 4 5 5 6 9
5 9 9 7 4 6 7 22 21 9 8 10 10 10 8 11 14 15 18 16 10 12 18 30 30 27 26 26 23 19 16 17 18 12 12 9 4 3 2 0 4 6 5 3 4 6 8 10 12
4 3 4 2 7 5 7 26 7 8 8 11 10 11 8 10 11 14 14 13 11 12 14 17 24 22 25 22 24 19 17 20 19 17 14 10 7 3 3 4 6 5 4 5 8 10 12 14 15
3 5 6 5 10 5 13 23 11 10 8 10 10 10 9 8 6 12 13 12 11 11 13 16 15 17 20 22 22 22 24 22 22 19 15 10 3 4 2 3 5 4 5 8 10 10 13 14 17
11 5 6 6 5 9 16 18 9 9 8 12 13 13 8 8 11 15 13 11 10 11 13 13 13 17 22 28 29 28 27 24 21 19 15 11 9 7 5 7 6 6 8 10 11 12 12 10 19
8 5 8 2 7 7 12 17 18 14 11 10 13 10 8 9 5 11 12 12 13 13 12 13 19 26 32 34 33 30 28 25 22 18 14 13 11 9 8 8 8 9 11 11 12 12 14 10 21
10 14 18 8 8 11 10 16 14 18 18 14 18 11 9 6 7 7 12 14 15 15 16 20 27 28 30 33 27 28 28 22 22 20 17 14 11 10 9 9 10 10 10 11 12 14 12 9 16
14 15 9 8 9 15 15 21 13 15 17 14 18 15 8 16 14 8 9 15 18 18 20 23 25 26 28 29 30 29 27 25 24 20 18 14 11 10 9 9 9 10 10 11 11 12 14 12 10
16 7 11 10 10 5 2 10 7 8 15 16 21 10 11 14 8 7 7 11 21 22 23 25 28 29 29 29 29 30 27 26 21 19 16 13 10 9 9 9 9 9 10 10 11 11 14 13 12
11 10 9 9 12 10 17 9 8 14 17 17 19 14 15 18 17 15 12 18 23 26 28 29 32 30 27 26 27 28 26 24 21 18 15 11 9 9 9 9 8 8 9 9 10 12 14 12 13
3 5 9 3 5 9 19 11 10 12 14 11 18 11 14 16 13 10 14 21 24 26 30 30 30 28 27 28 27 27 27 25 23 17 13 9 6 7 8 8 8 8 9 10 11 12 12 13 13
16 8 4 7 7 11 9 11 21 7 13 15 13 13 16 18 18 16 15 14 20 26 31 31 32 29 29 28 27 25 24 22 19 15 11 8 5 6 7 7 7 9 9 10 12 13 14 15 16
12 15 5 6 3 8 6 10 8 16 25 21 9 12 18 19 19 18 16 18 21 25 30 32 33 31 30 28 26 23 21 19 16 12 9 7 5 5 5 5 7 8 10 11 13 15 17 17 17
4 12 23 6 4 3 6 5 10 12 7 7 11 18 20 19 19 18 14 20 22 26 30 34 34 31 29 28 26 22 19 17 15 11 8 6 5 3 4 6 8 10 12 14 16 17 18 18 19
16 7 5 6 4 5 5 7 12 14 10 7 15 17 17 16 16 15 13 18 20 27 31 32 31 30 28 26 24 21 18 15 12 9 7 5 3 4 6 8 10 13 15 17 18 18 19 18 20
7 10 8 6 7 3 3 6 10 16 14 15 14 17 20 19 17 15 13 18 23 29 31 30 29 29 26 24 23 20 17 13 10 7 5 4 3 5 7 10 13 15 17 19 19 20 21 20 16
23 20 18 7 8 6 4 7 4 8 15 18 16 14 14 16 15 14 14 20 22 24 29 30 29 28 25 23 21 18 15 11 8 6 4 3 4 6 9 12 15 17 19 21 21 21 19 20 25
Wind_Direction
329 328 329 18 36 61 266 275 256 340 357 291 248 96 144 34 173 207 137 188 174 165 171 173 170 168 169 165 154 154 151 147 146 144 146 138 135 126 128 138 128 136 142 112 148 169 166 135 179
324 327 352 78 94 19 270 245 118 246 240 298 249 99 82 71 66 144 125 158 159 168 170 174 174 170 171 171 165 156 154 153 158 158 159 159 163 155 144 132 140 159 197 189 203 197 208 226 236
324 328 76 108 142 197 223 217 300 294 359 344 350 76 97 103 94 175 161 159 160 167 174 176 175 172 177 177 173 165 161 159 165 171 176 179 183 169 166 159 151 110 43 128 196 210 210 237 251
336 3 23 122 235 243 233 296 290 273 341 349 321 65 50 348 181 182 158 165 164 169 177 178 177 177 181 182 178 174 170 165 169 176 181 192 174 176 176 185 192 61 21 39 49 220 219 267 280
30 67 312 240 249 257 258 261 256 257 163 313 2 189 116 25 130 155 165 170 171 171 178 181 180 180 184 187 183 180 177 168 175 179 181 199 198 194 180 198 224 290 355 25 39 146 285 291 299
32 102 127 226 255 267 296 273 254 224 88 334 58 94 213 161 158 166 177 178 180 175 179 184 184 185 189 192 188 187 181 180 177 176 174 163 177 181 187 202 222 265 287 303 275 271 276 282 286
152 118 213 215 252 296 248 306 243 219 130 179 186 122 276 270 179 173 174 185 179 179 182 188 189 190 192 194 195 195 188 193 183 184 185 195 187 166 193 232 244 263 269 280 289 281 280 281 284
153 133 207 213 222 262 244 260 235 197 231 244 134 175 241 231 180 179 169 173 177 180 182 192 192 193 194 196 200 200 200 199 193 191 205 215 213 209 217 234 249 261 281 289 298 299 299 297 302
132 178 218 214 192 234 293 337 318 321 140 229 101 162 249 179 172 170 169 170 182 187 191 190 195 196 198 198 199 203 206 204 202 199 202 216 216 214 219 231 241 265 310 309 310 309 317 317 321
186 210 215 199 213 242 196 265 285 242 239 268 335 12 92 152 177 188 185 195 189 196 197 196 195 198 200 200 201 204 207 208 207 204 192 201 185 193 225 240 251 259 286 326 326 322 319 324 323
219 236 221 239 225 239 256 260 250 224 231 214 200 170 221 196 205 208 215 208 208 209 203 202 200 196 196 198 201 204 209 206 199 192 192 206 206 208 222 223 238 258 275 299 308 315 318 315 320
250 260 242 259 273 282 267 259 282 258 228 213 225 198 214 192 234 234 232 223 224 218 213 210 206 200 200 198 202 205 206 204 204 203 207 217 204 214 222 247 261 263 277 298 298 303 310 321 329
240 263 257 262 261 266 277 257 249 254 249 257 265 278 268 273 268 282 266 252 214 220 215 212 207 205 204 202 206 205 208 207 200 214 213 209 196 186 184 156 210 329 312 335 6 30 349 324 328
298 306 283 265 274 266 274 279 237 270 240 243 251 266 264 268 263 285 259 220 199 209 215 209 207 205 205 201 200 202 209 210 199 179 167 152 157 140 111 85 54 39 35 46 43 13 358 347 333
275 300 295 250 248 259 283 271 257 245 252 240 244 256 258 256 275 243 234 201 187 190 206 207 206 207 203 202 200 197 199 184 171 155 145 143 131 128 174 124 78 73 58 19 346 353 337 329 328
335 289 263 179 202 225 188 259 246 237 219 247 250 260 261 264 234 222 192 184 174 160 163 179 199 199 204 195 195 186 170 152 138 139 134 137 134 154 120 84 74 60 24 2 350 344 343 345 340
241 260 273 298 228 233 205 261 242 243 217 240 250 254 253 250 235 206 199 189 189 186 167 160 163 168 175 178 169 159 142 139 131 128 123 120 124 130 138 94 68 29 4 0 360 359 359 355 345
227 236 237 214 314 226 261 268 259 265 245 237 245 256 251 215 218 194 183 167 175 177 174 179 177 176 164 158 147 135 133 127 123 119 116 122 124 112 105 86 55 25 10 8 7 4 5 6 354
277 254 256 343 311 308 264 272 262 252 252 245 251 247 241 218 196 199 171 160 154 155 157 161 163 156 154 147 139 133 125 126 116 113 116 118 116 106 86 64 44 30 23 18 11 8 7 7 3
245 261 263 288 267 277 280 286 281 259 246 235 247 238 218 165 183 195 161 160 157 153 146 149 150 151 150 146 142 137 130 122 120 118 113 108 106 89 73 58 44 32 25 23 21 20 14 7 9
236 242 262 252 291 281 288 282 267 258 245 244 244 243 192 181 183 186 158 154 154 149 150 147 149 149 146 142 137 130 126 123 119 116 110 100 89 77 62 51 41 32 25 26 23 20 19 4 3
246 197 245 263 274 253 41 281 262 254 237 228 237 213 189 189 174 155 149 151 150 149 151 151 149 147 147 148 146 145 139 130 129 126 119 104 86 69 55 46 37 29 26 23 18 13 10 4 3
250 236 239 257 257 272 263 276 255 228 244 237 229 213 204 184 170 167 160 153 146 147 148 153 150 148 149 152 149 143 136 134 133 131 124 107 82 63 50 39 32 29 22 18 9 4 4 7 355
245 239 267 274 266 238 236 208 250 228 227 238 230 198 185 173 160 142 132 138 143 146 141 145 145 144 147 146 146 144 140 138 137 136 127 113 82 57 44 35 30 25 16 10 2 357 357 355 353
219 215 220 204 212 240 185 202 243 263 252 250 231 193 175 163 150 147 146 143 140 141 143 146 144 142 146 145 143 143 142 143 140 137 130 118 92 63 41 29 21 15 9 1 353 351 351 348 343
208 203 232 196 202 250 145 229 246 224 245 253 248 192 160 158 153 155 152 147 143 141 139 143 142 141 144 143 139 141 142 139 131 127 119 103 84 58 37 25 14 7 358 352 348 346 344 340 341
185 214 216 286 232 258 215 256 282 257 246 189 156 160 160 156 153 152 148 147 146 143 143 143 141 141 142 140 138 137 135 132 127 120 114 99 85 43 18 8 359 355 351 349 345 342 341 337 336
214 153 167 211 235 237 247 224 228 190 200 161 158 161 154 148 144 145 148 144 144 146 148 148 146 144 143 141 139 135 133 130 123 120 109 92 71 23 4 356 350 349 347 346 343 339 337 332 330
182 212 216 181 217 242 289 250 202 215 172 171 170 164 157 153 150 151 145 142 143 148 151 149 147 143 142 141 138 136 134 129 124 116 99 75 38 10 357 352 349 346 343 343 339 336 334 325 324
206 206 201 203 210 221 0 276 292 173 168 168 164 162 151 147 147 146 146 144 146 147 151 152 150 147 147 143 140 138 136 133 128 108 82 50 18 2 354 351 346 343 342 339 337 334 332 327 324